Retour au catalogue

STARLINK-6047

ActifCommunicationsVLEO
NORAD 56460·PAYLOAD·🇺🇸 United States

Lancé May 10, 2023 depuis Vandenberg Space Force Base

Loading…

Prochains Passages (prochaines 24 heures)

TLE

FraisSource: CelesTrak SupGP

Époque: Sep 15, 2026, 02:09 UTC

1 56460C 23064N   26258.09006944 -.00012055  00000+0 -10105-2 0  2582
2 56460  70.0031  26.8539 0002980 272.5834 237.4250 14.98325795    14

Suivez STARLINK-6047 en temps réel avec AllMySat

Download on the App Store